Time,TemperatureF,DewpointF,PressureIn,WindDirection,WindDirectionDegrees,WindSpeedMPH,WindSpeedGustMPH,Humidity,HourlyPrecipIn,Conditions,Clouds,dailyrainin,SolarRadiationWatts/m^2,SoftwareType,DateUTC
2013-07-27 00:00:00,54.8,52.2,30.00,North,355,3.0,4.0,91,0.00,,,0.00,0.00,VWS V14.00,2013-07-27 04:00:00,
2013-07-27 00:01:00,54.8,52.2,30.00,North,355,3.0,4.0,91,0.00,,,0.00,0.00,VWS V14.00,2013-07-27 04:01:00,
2013-07-27 00:02:00,54.8,52.2,30.00,North,355,4.0,5.0,91,0.00,,,0.00,0.00,VWS V14.00,2013-07-27 04:02:00,
2013-07-27 00:05:00,54.8,52.2,29.99,North,355,3.0,5.0,91,0.00,,,0.00,0.00,VWS V14.00,2013-07-27 04:05:00,
2013-07-27 00:07:00,54.8,52.2,29.99,North,355,4.0,4.0,91,0.00,,,0.00,0.00,VWS V14.00,2013-07-27 04:07:00,
2013-07-27 00:10:00,54.8,52.2,29.99,North,355,2.0,4.0,91,0.00,,,0.00,0.00,VWS V14.00,2013-07-27 04:10:00,
2013-07-27 00:12:00,54.8,52.2,29.99,North,355,4.0,4.0,91,0.00,,,0.00,0.00,VWS V14.00,2013-07-27 04:12:00,
2013-07-27 00:15:00,54.7,52.1,29.99,North,355,3.0,4.0,91,0.00,,,0.00,0.00,VWS V14.00,2013-07-27 04:15:00,
2013-07-27 00:17:00,54.7,52.1,29.99,North,355,4.0,4.0,91,0.00,,,0.00,0.00,VWS V14.00,2013-07-27 04:17:00,
2013-07-27 00:22:00,54.6,52.3,29.99,North,355,3.0,4.0,92,0.00,,,0.00,0.00,VWS V14.00,2013-07-27 04:22:00,
2013-07-27 00:25:00,54.6,52.0,30.00,North,355,3.0,4.0,91,0.00,,,0.00,0.00,VWS V14.00,2013-07-27 04:25:00,
2013-07-27 00:27:00,54.6,52.0,29.99,North,355,3.0,4.0,91,0.00,,,0.00,0.00,VWS V14.00,2013-07-27 04:27:00,
2013-07-27 00:30:00,54.5,51.9,30.00,North,355,2.0,4.0,91,0.00,,,0.00,0.00,VWS V14.00,2013-07-27 04:30:00,
2013-07-27 00:32:00,54.5,51.9,29.99,North,355,3.0,4.0,91,0.00,,,0.00,0.00,VWS V14.00,2013-07-27 04:32:00,
2013-07-27 00:35:00,54.5,52.2,29.99,North,355,3.0,4.0,92,0.00,,,0.00,0.00,VWS V14.00,2013-07-27 04:35:00,
2013-07-27 00:37:00,54.5,52.2,29.99,North,355,3.0,4.0,92,0.00,,,0.00,0.00,VWS V14.00,2013-07-27 04:37:00,
2013-07-27 00:40:00,54.4,52.1,30.00,North,355,3.0,4.0,92,0.00,,,0.00,0.00,VWS V14.00,2013-07-27 04:40:00,
2013-07-27 00:42:00,54.4,52.1,30.00,North,355,2.0,3.0,92,0.00,,,0.00,0.00,VWS V14.00,2013-07-27 04:42:00,
2013-07-27 00:45:00,54.3,52.0,30.00,North,355,3.0,4.0,92,0.00,,,0.00,0.00,VWS V14.00,2013-07-27 04:45:00,
2013-07-27 00:47:00,54.3,52.0,30.00,North,355,3.0,4.0,92,0.00,,,0.00,0.00,VWS V14.00,2013-07-27 04:47:00,
2013-07-27 00:50:00,54.2,51.9,30.00,North,355,2.0,4.0,92,0.00,,,0.00,0.00,VWS V14.00,2013-07-27 04:50:00,
2013-07-27 00:52:00,54.2,51.9,30.00,North,355,3.0,3.0,92,0.00,,,0.00,0.00,VWS V14.00,2013-07-27 04:52:00,
2013-07-27 00:55:00,54.2,51.9,30.00,North,355,2.0,4.0,92,0.00,,,0.00,0.00,VWS V14.00,2013-07-27 04:55:00,
2013-07-27 00:57:00,54.1,51.8,29.99,North,355,2.0,3.0,92,0.00,,,0.00,0.00,VWS V14.00,2013-07-27 04:57:00,
2013-07-27 01:00:00,54.1,51.8,30.00,North,355,3.0,4.0,92,0.00,,,0.00,0.00,VWS V14.00,2013-07-27 05:00:00,
2013-07-27 01:02:00,54.1,51.8,30.00,North,355,4.0,4.0,92,0.00,,,0.00,0.00,VWS V14.00,2013-07-27 05:02:00,
2013-07-27 01:05:00,54.1,51.8,30.00,North,355,3.0,4.0,92,0.00,,,0.00,0.00,VWS V14.00,2013-07-27 05:05:00,
2013-07-27 01:07:00,54.1,51.8,30.00,North,355,2.0,3.0,92,0.00,,,0.00,0.00,VWS V14.00,2013-07-27 05:07:00,
2013-07-27 01:10:00,54.1,51.8,30.00,North,355,3.0,4.0,92,0.00,,,0.00,0.00,VWS V14.00,2013-07-27 05:10:00,
2013-07-27 01:12:00,54.1,51.8,30.00,North,355,3.0,3.0,92,0.00,,,0.00,0.00,VWS V14.00,2013-07-27 05:12:00,
2013-07-27 01:15:00,54.1,51.8,30.00,North,355,2.0,4.0,92,0.00,,,0.00,0.00,VWS V14.00,2013-07-27 05:15:00,
2013-07-27 01:17:00,54.1,51.8,30.00,North,355,2.0,3.0,92,0.00,,,0.00,0.00,VWS V14.00,2013-07-27 05:17:00,
2013-07-27 01:20:00,54.0,51.7,30.00,North,355,2.0,3.0,92,0.00,,,0.00,0.00,VWS V14.00,2013-07-27 05:20:00,
2013-07-27 01:22:00,54.0,51.7,30.00,North,355,2.0,3.0,92,0.00,,,0.00,0.00,VWS V14.00,2013-07-27 05:22:00,
2013-07-27 01:25:00,54.0,51.7,30.00,North,355,3.0,4.0,92,0.00,,,0.00,0.00,VWS V14.00,2013-07-27 05:25:00,
2013-07-27 01:27:00,54.0,51.7,30.00,North,355,2.0,3.0,92,0.00,,,0.00,0.00,VWS V14.00,2013-07-27 05:27:00,
2013-07-27 01:30:00,53.9,51.6,30.00,North,355,3.0,4.0,92,0.00,,,0.00,0.00,VWS V14.00,2013-07-27 05:30:00,
2013-07-27 01:32:00,53.9,51.6,30.00,North,355,2.0,4.0,92,0.00,,,0.00,0.00,VWS V14.00,2013-07-27 05:32:00,
2013-07-27 01:37:00,53.9,51.6,30.00,North,355,2.0,4.0,92,0.00,,,0.00,0.00,VWS V14.00,2013-07-27 05:37:00,
2013-07-27 01:40:00,53.9,51.6,30.00,NNW,347,3.0,5.0,92,0.00,,,0.00,0.00,VWS V14.00,2013-07-27 05:40:00,
2013-07-27 01:42:00,53.8,51.5,30.00,NNW,346,3.0,4.0,92,0.00,,,0.00,0.00,VWS V14.00,2013-07-27 05:42:00,
2013-07-27 01:45:00,53.8,51.5,30.00,NNW,346,4.0,4.0,92,0.00,,,0.00,0.00,VWS V14.00,2013-07-27 05:45:00,
2013-07-27 01:47:00,53.7,51.4,30.00,NNW,348,2.0,4.0,92,0.00,,,0.00,0.00,VWS V14.00,2013-07-27 05:47:00,
2013-07-27 01:50:00,53.7,51.4,29.99,NNW,347,4.0,5.0,92,0.00,,,0.00,0.00,VWS V14.00,2013-07-27 05:50:00,
2013-07-27 01:52:00,53.7,51.4,30.00,NNW,347,3.0,4.0,92,0.00,,,0.00,0.00,VWS V14.00,2013-07-27 05:52:00,
2013-07-27 01:55:00,53.7,51.4,29.99,NNW,343,3.0,4.0,92,0.00,,,0.00,0.00,VWS V14.00,2013-07-27 05:55:00,
2013-07-27 01:57:00,53.7,51.4,29.99,NNW,343,3.0,4.0,92,0.00,,,0.00,0.00,VWS V14.00,2013-07-27 05:57:00,
2013-07-27 02:00:00,53.7,51.4,30.00,NNW,342,4.0,5.0,92,0.00,,,0.00,0.00,VWS V14.00,2013-07-27 06:00:00,
2013-07-27 02:02:00,53.7,51.4,29.99,NNW,345,3.0,4.0,92,0.00,,,0.00,0.00,VWS V14.00,2013-07-27 06:02:00,
2013-07-27 02:05:00,53.7,51.4,29.99,NNW,346,4.0,5.0,92,0.00,,,0.00,0.00,VWS V14.00,2013-07-27 06:05:00,
2013-07-27 02:07:00,53.7,51.4,29.99,NNW,346,3.0,4.0,92,0.00,,,0.00,0.00,VWS V14.00,2013-07-27 06:07:00,
2013-07-27 02:10:00,53.7,51.4,29.99,NNW,345,4.0,4.0,92,0.00,,,0.00,0.00,VWS V14.00,2013-07-27 06:10:00,
2013-07-27 02:12:00,53.7,51.7,29.99,NNW,346,4.0,5.0,93,0.00,,,0.00,0.00,VWS V14.00,2013-07-27 06:12:00,
2013-07-27 02:15:00,53.7,51.7,29.99,NNW,346,4.0,5.0,93,0.00,,,0.00,0.00,VWS V14.00,2013-07-27 06:15:00,
2013-07-27 02:17:00,53.7,51.7,29.99,NNW,346,3.0,5.0,93,0.00,,,0.00,0.00,VWS V14.00,2013-07-27 06:17:00,
2013-07-27 02:20:00,53.7,51.7,29.99,NNW,346,3.0,5.0,93,0.00,,,0.00,0.00,VWS V14.00,2013-07-27 06:20:00,
2013-07-27 02:22:00,53.7,51.7,29.99,NNW,345,3.0,4.0,93,0.00,,,0.00,0.00,VWS V14.00,2013-07-27 06:22:00,
2013-07-27 02:25:00,53.7,51.7,29.99,NNW,346,3.0,4.0,93,0.00,,,0.00,0.00,VWS V14.00,2013-07-27 06:25:00,
2013-07-27 02:27:00,53.7,51.7,29.99,NNW,346,4.0,5.0,93,0.00,,,0.00,0.00,VWS V14.00,2013-07-27 06:27:00,
2013-07-27 02:30:00,53.7,51.7,29.99,NNW,346,4.0,5.0,93,0.00,,,0.00,0.00,VWS V14.00,2013-07-27 06:30:00,
2013-07-27 02:32:00,53.7,51.7,29.99,NNW,346,4.0,4.0,93,0.00,,,0.00,0.00,VWS V14.00,2013-07-27 06:32:00,
2013-07-27 02:35:00,53.7,51.7,29.99,NNW,346,4.0,5.0,93,0.00,,,0.00,0.00,VWS V14.00,2013-07-27 06:35:00,
2013-07-27 02:37:00,53.7,51.7,29.99,NNW,344,4.0,5.0,93,0.00,,,0.00,0.00,VWS V14.00,2013-07-27 06:37:00,
2013-07-27 02:40:00,53.7,51.7,29.99,NNW,344,2.0,5.0,93,0.00,,,0.00,0.00,VWS V14.00,2013-07-27 06:40:00,
2013-07-27 02:42:00,53.7,51.4,29.99,NNW,344,3.0,4.0,92,0.00,,,0.00,0.00,VWS V14.00,2013-07-27 06:42:00,
2013-07-27 02:45:00,53.6,51.6,29.99,NNW,344,4.0,4.0,93,0.00,,,0.00,0.00,VWS V14.00,2013-07-27 06:45:00,
2013-07-27 02:47:00,53.6,51.6,29.99,NNW,344,1.0,4.0,93,0.00,,,0.00,0.00,VWS V14.00,2013-07-27 06:47:00,
2013-07-27 02:50:00,53.6,51.6,29.99,NNW,344,0.0,4.0,93,0.00,,,0.00,0.00,VWS V14.00,2013-07-27 06:50:00,
2013-07-27 02:52:00,53.6,51.6,29.99,NNW,344,2.0,3.0,93,0.00,,,0.00,0.00,VWS V14.00,2013-07-27 06:52:00,
2013-07-27 02:55:00,53.5,51.5,29.99,NNW,344,4.0,5.0,93,0.00,,,0.00,0.00,VWS V14.00,2013-07-27 06:55:00,
2013-07-27 02:57:00,53.5,51.5,29.99,NNW,344,4.0,5.0,93,0.00,,,0.00,0.00,VWS V14.00,2013-07-27 06:57:00,
2013-07-27 03:00:00,53.5,51.5,29.99,NNW,344,3.0,5.0,93,0.00,,,0.00,0.00,VWS V14.00,2013-07-27 07:00:00,
2013-07-27 03:02:00,53.4,51.4,29.99,NNW,344,2.0,4.0,93,0.00,,,0.00,0.00,VWS V14.00,2013-07-27 07:02:00,
2013-07-27 03:07:00,53.3,51.3,29.98,NNW,344,3.0,3.0,93,0.00,,,0.00,0.00,VWS V14.00,2013-07-27 07:07:00,
2013-07-27 03:10:00,53.3,51.3,29.98,NNW,344,3.0,5.0,93,0.00,,,0.00,0.00,VWS V14.00,2013-07-27 07:10:00,
2013-07-27 03:12:00,53.3,51.3,29.99,NNW,345,3.0,5.0,93,0.00,,,0.00,0.00,VWS V14.00,2013-07-27 07:12:00,
2013-07-27 03:15:00,53.3,51.3,29.98,NNW,345,3.0,5.0,93,0.00,,,0.00,0.00,VWS V14.00,2013-07-27 07:15:00,
2013-07-27 03:17:00,53.3,51.3,29.98,NNW,345,3.0,4.0,93,0.00,,,0.00,0.00,VWS V14.00,2013-07-27 07:17:00,
2013-07-27 03:20:00,53.2,51.2,29.98,NNW,345,4.0,4.0,93,0.00,,,0.00,0.00,VWS V14.00,2013-07-27 07:20:00,
2013-07-27 03:22:00,53.2,51.2,29.98,NNW,345,3.0,5.0,93,0.00,,,0.00,0.00,VWS V14.00,2013-07-27 07:22:00,
2013-07-27 03:25:00,53.2,51.2,29.98,NNW,345,3.0,5.0,93,0.00,,,0.00,0.00,VWS V14.00,2013-07-27 07:25:00,
2013-07-27 03:27:00,53.1,51.1,29.98,NNW,345,4.0,4.0,93,0.00,,,0.00,0.00,VWS V14.00,2013-07-27 07:27:00,
2013-07-27 03:30:00,53.1,51.1,29.98,NNW,345,3.0,4.0,93,0.00,,,0.00,0.00,VWS V14.00,2013-07-27 07:30:00,
2013-07-27 03:32:00,53.1,51.1,29.98,NNW,345,4.0,5.0,93,0.00,,,0.00,0.00,VWS V14.00,2013-07-27 07:32:00,
2013-07-27 03:35:00,53.0,51.0,29.98,NNW,345,2.0,5.0,93,0.00,,,0.00,0.00,VWS V14.00,2013-07-27 07:35:00,
2013-07-27 03:37:00,53.0,51.0,29.98,NNW,345,1.0,3.0,93,0.00,,,0.00,0.00,VWS V14.00,2013-07-27 07:37:00,
2013-07-27 03:40:00,53.0,51.0,29.98,NNW,345,1.0,4.0,93,0.00,,,0.00,0.00,VWS V14.00,2013-07-27 07:40:00,
2013-07-27 03:42:00,53.0,51.0,29.98,NNW,345,2.0,3.0,93,0.00,,,0.00,0.00,VWS V14.00,2013-07-27 07:42:00,
2013-07-27 03:47:00,52.9,50.9,29.98,NNW,345,3.0,4.0,93,0.00,,,0.00,0.00,VWS V14.00,2013-07-27 07:47:00,
2013-07-27 03:50:00,52.9,50.9,29.99,NNW,345,4.0,5.0,93,0.00,,,0.00,0.00,VWS V14.00,2013-07-27 07:50:00,
2013-07-27 03:52:00,52.9,50.9,29.99,NNW,345,4.0,5.0,93,0.00,,,0.00,0.00,VWS V14.00,2013-07-27 07:52:00,
2013-07-27 03:55:00,52.9,50.9,29.99,NNW,345,3.0,5.0,93,0.00,,,0.00,0.00,VWS V14.00,2013-07-27 07:55:00,
2013-07-27 03:57:00,52.9,50.9,29.99,NNW,345,4.0,4.0,93,0.00,,,0.00,0.00,VWS V14.00,2013-07-27 07:57:00,
2013-07-27 04:00:00,52.8,50.8,29.99,NNW,345,4.0,5.0,93,0.00,,,0.00,0.00,VWS V14.00,2013-07-27 08:00:00,
2013-07-27 04:02:00,52.8,50.8,29.99,NNW,345,3.0,4.0,93,0.00,,,0.00,0.00,VWS V14.00,2013-07-27 08:02:00,
2013-07-27 04:05:00,52.8,50.8,29.99,NNW,345,3.0,4.0,93,0.00,,,0.00,0.00,VWS V14.00,2013-07-27 08:05:00,
2013-07-27 04:08:00,52.8,50.8,29.99,NNW,345,1.0,3.0,93,0.00,,,0.00,0.00,VWS V14.00,2013-07-27 08:08:00,
2013-07-27 04:10:00,52.7,50.7,29.99,NNW,345,0.0,3.0,93,0.00,,,0.00,0.00,VWS V14.00,2013-07-27 08:10:00,
2013-07-27 04:13:00,52.7,50.7,29.99,NNW,345,0.0,1.0,93,0.00,,,0.00,0.00,VWS V14.00,2013-07-27 08:13:00,
2013-07-27 04:15:00,52.6,50.6,29.99,NNW,345,2.0,3.0,93,0.00,,,0.00,0.00,VWS V14.00,2013-07-27 08:15:00,
2013-07-27 04:18:00,52.6,50.6,29.99,NNW,345,3.0,4.0,93,0.00,,,0.00,0.00,VWS V14.00,2013-07-27 08:18:00,
2013-07-27 04:20:00,52.6,50.6,29.99,NNW,345,3.0,5.0,93,0.00,,,0.00,0.00,VWS V14.00,2013-07-27 08:20:00,
2013-07-27 04:23:00,52.6,50.6,29.99,NNW,345,3.0,4.0,93,0.00,,,0.00,0.00,VWS V14.00,2013-07-27 08:23:00,
2013-07-27 04:25:00,52.5,50.5,29.99,NNW,345,3.0,4.0,93,0.00,,,0.00,0.00,VWS V14.00,2013-07-27 08:25:00,
2013-07-27 04:28:00,52.5,50.5,29.99,NNW,345,3.0,4.0,93,0.00,,,0.00,0.00,VWS V14.00,2013-07-27 08:28:00,
2013-07-27 04:30:00,52.5,50.5,29.98,NNW,345,2.0,4.0,93,0.00,,,0.00,0.00,VWS V14.00,2013-07-27 08:30:00,
2013-07-27 04:33:00,52.4,50.4,29.98,NNW,345,2.0,4.0,93,0.00,,,0.00,0.00,VWS V14.00,2013-07-27 08:33:00,
2013-07-27 04:35:00,52.4,50.4,29.99,NNW,345,3.0,4.0,93,0.00,,,0.00,0.00,VWS V14.00,2013-07-27 08:35:00,
2013-07-27 04:38:00,52.4,50.4,29.99,NNW,345,3.0,4.0,93,0.00,,,0.00,0.00,VWS V14.00,2013-07-27 08:38:00,
2013-07-27 04:40:00,52.4,50.4,29.99,NNW,345,3.0,4.0,93,0.00,,,0.00,0.00,VWS V14.00,2013-07-27 08:40:00,
2013-07-27 04:43:00,52.4,50.4,29.98,NNW,345,4.0,4.0,93,0.00,,,0.00,0.00,VWS V14.00,2013-07-27 08:43:00,
2013-07-27 04:45:00,52.3,50.3,29.98,NNW,345,2.0,4.0,93,0.00,,,0.00,0.00,VWS V14.00,2013-07-27 08:45:00,
2013-07-27 04:48:00,52.3,50.3,29.98,NNW,345,2.0,4.0,93,0.00,,,0.00,0.00,VWS V14.00,2013-07-27 08:48:00,
2013-07-27 04:50:00,52.3,50.3,29.98,NNW,345,4.0,4.0,93,0.00,,,0.00,0.00,VWS V14.00,2013-07-27 08:50:00,
2013-07-27 04:53:00,52.3,50.3,29.98,NNW,345,4.0,4.0,93,0.00,,,0.00,0.00,VWS V14.00,2013-07-27 08:53:00,
2013-07-27 04:55:00,52.3,50.3,29.98,NNW,345,3.0,4.0,93,0.00,,,0.00,0.00,VWS V14.00,2013-07-27 08:55:00,
2013-07-27 04:58:00,52.3,50.3,29.99,NNW,345,3.0,4.0,93,0.00,,,0.00,0.00,VWS V14.00,2013-07-27 08:58:00,
2013-07-27 05:00:00,52.2,50.2,29.99,NNW,345,1.0,4.0,93,0.00,,,0.00,0.00,VWS V14.00,2013-07-27 09:00:00,
2013-07-27 05:03:00,52.2,50.2,29.98,NNW,345,2.0,3.0,93,0.00,,,0.00,0.00,VWS V14.00,2013-07-27 09:03:00,
2013-07-27 05:05:00,52.2,50.2,29.99,NNW,345,3.0,4.0,93,0.00,,,0.00,0.00,VWS V14.00,2013-07-27 09:05:00,
2013-07-27 05:08:00,52.2,50.2,29.99,NNW,345,3.0,4.0,93,0.00,,,0.00,0.00,VWS V14.00,2013-07-27 09:08:00,
2013-07-27 05:10:00,52.3,50.3,29.99,NNW,345,4.0,5.0,93,0.00,,,0.00,0.00,VWS V14.00,2013-07-27 09:10:00,
2013-07-27 05:13:00,52.2,50.2,29.99,NNW,345,3.0,4.0,93,0.00,,,0.00,0.00,VWS V14.00,2013-07-27 09:13:00,
2013-07-27 05:15:00,52.2,50.2,29.99,NNW,345,2.0,4.0,93,0.00,,,0.00,0.00,VWS V14.00,2013-07-27 09:15:00,
2013-07-27 05:18:00,52.2,50.2,29.99,NNW,345,3.0,3.0,93,0.00,,,0.00,0.00,VWS V14.00,2013-07-27 09:18:00,
2013-07-27 05:20:00,52.2,50.2,29.99,NNW,345,0.0,3.0,93,0.00,,,0.00,0.00,VWS V14.00,2013-07-27 09:20:00,
2013-07-27 05:23:00,52.1,50.1,29.99,NNW,345,1.0,3.0,93,0.00,,,0.00,0.00,VWS V14.00,2013-07-27 09:23:00,
2013-07-27 05:25:00,52.1,50.1,29.99,NNW,345,3.0,4.0,93,0.00,,,0.00,0.00,VWS V14.00,2013-07-27 09:25:00,
2013-07-27 05:28:00,52.1,50.1,29.99,NNW,345,3.0,4.0,93,0.00,,,0.00,0.00,VWS V14.00,2013-07-27 09:28:00,
2013-07-27 05:30:00,52.1,50.1,29.98,NNW,345,0.0,4.0,93,0.00,,,0.00,0.00,VWS V14.00,2013-07-27 09:30:00,
2013-07-27 05:33:00,52.1,50.1,29.99,NNW,345,1.0,3.0,93,0.00,,,0.00,0.00,VWS V14.00,2013-07-27 09:33:00,
2013-07-27 05:35:00,52.0,50.0,29.99,NNW,345,0.0,3.0,93,0.00,,,0.00,0.00,VWS V14.00,2013-07-27 09:35:00,
2013-07-27 05:38:00,51.9,49.9,29.99,NNW,345,0.0,1.0,93,0.00,,,0.00,5.00,VWS V14.00,2013-07-27 09:38:00,
2013-07-27 05:40:00,51.8,49.8,29.99,NNW,345,0.0,1.0,93,0.00,,,0.00,5.00,VWS V14.00,2013-07-27 09:40:00,
2013-07-27 05:43:00,51.7,49.8,29.99,NNW,345,0.0,1.0,93,0.00,,,0.00,7.00,VWS V14.00,2013-07-27 09:43:00,
2013-07-27 05:45:00,51.6,49.7,29.99,NNW,345,2.0,3.0,93,0.00,,,0.00,7.00,VWS V14.00,2013-07-27 09:45:00,
2013-07-27 05:48:00,51.5,49.5,29.99,NNW,345,2.0,3.0,93,0.00,,,0.00,9.00,VWS V14.00,2013-07-27 09:48:00,
2013-07-27 05:50:00,51.5,49.5,29.99,NNW,345,4.0,4.0,93,0.00,,,0.00,9.00,VWS V14.00,2013-07-27 09:50:00,
2013-07-27 05:53:00,51.4,49.5,29.99,NNW,345,3.0,4.0,93,0.00,,,0.00,11.00,VWS V14.00,2013-07-27 09:53:00,
2013-07-27 05:55:00,51.4,49.5,29.99,NNW,345,4.0,5.0,93,0.00,,,0.00,11.00,VWS V14.00,2013-07-27 09:55:00,
2013-07-27 05:58:00,51.5,49.5,29.99,NNW,345,3.0,5.0,93,0.00,,,0.00,12.00,VWS V14.00,2013-07-27 09:58:00,
2013-07-27 06:00:00,51.4,49.5,29.99,NNW,345,0.0,5.0,93,0.00,,,0.00,12.00,VWS V14.00,2013-07-27 10:00:00,
2013-07-27 06:03:00,51.4,49.5,29.99,NNW,345,0.0,2.0,93,0.00,,,0.00,14.00,VWS V14.00,2013-07-27 10:03:00,
2013-07-27 06:05:00,51.4,49.5,29.99,NNW,345,0.0,2.0,93,0.00,,,0.00,14.00,VWS V14.00,2013-07-27 10:05:00,
2013-07-27 06:08:00,51.3,49.3,30.00,NNW,345,1.0,2.0,93,0.00,,,0.00,16.00,VWS V14.00,2013-07-27 10:08:00,
2013-07-27 06:10:00,51.4,49.5,29.99,NNW,345,2.0,3.0,93,0.00,,,0.00,18.00,VWS V14.00,2013-07-27 10:10:00,
2013-07-27 06:13:00,51.4,49.5,30.00,NNW,345,0.0,2.0,93,0.00,,,0.00,18.00,VWS V14.00,2013-07-27 10:13:00,
2013-07-27 06:15:00,51.4,49.5,29.99,NNW,345,0.0,2.0,93,0.00,,,0.00,19.00,VWS V14.00,2013-07-27 10:15:00,
2013-07-27 06:18:00,51.5,49.8,29.99,NNW,345,0.0,0.0,94,0.00,,,0.00,19.00,VWS V14.00,2013-07-27 10:18:00,
2013-07-27 06:20:00,51.5,49.8,29.99,NNW,345,0.0,2.0,94,0.00,,,0.00,21.00,VWS V14.00,2013-07-27 10:20:00,
2013-07-27 06:23:00,51.6,49.9,29.99,NNW,345,0.0,0.0,94,0.00,,,0.00,23.00,VWS V14.00,2013-07-27 10:23:00,
2013-07-27 06:25:00,51.7,50.0,29.99,NNW,345,0.0,0.0,94,0.00,,,0.00,25.00,VWS V14.00,2013-07-27 10:25:00,
2013-07-27 06:28:00,51.7,50.0,29.99,NNW,345,0.0,0.0,94,0.00,,,0.00,26.00,VWS V14.00,2013-07-27 10:28:00,
2013-07-27 06:30:00,51.7,50.0,29.99,NNW,345,0.0,1.0,94,0.00,,,0.00,28.00,VWS V14.00,2013-07-27 10:30:00,
2013-07-27 06:33:00,51.9,50.2,29.99,NNW,345,0.0,0.0,94,0.00,,,0.00,30.00,VWS V14.00,2013-07-27 10:33:00,
2013-07-27 06:35:00,51.9,50.2,29.99,NNW,345,0.0,0.0,94,0.00,,,0.00,32.00,VWS V14.00,2013-07-27 10:35:00,
2013-07-27 06:38:00,52.1,50.4,29.99,NNW,345,0.0,0.0,94,0.00,,,0.00,33.00,VWS V14.00,2013-07-27 10:38:00,
2013-07-27 06:40:00,52.2,50.5,29.99,NNW,345,0.0,0.0,94,0.00,,,0.00,33.00,VWS V14.00,2013-07-27 10:40:00,
2013-07-27 06:43:00,52.3,50.6,29.99,NNW,345,0.0,0.0,94,0.00,,,0.00,33.00,VWS V14.00,2013-07-27 10:43:00,
2013-07-27 06:45:00,52.5,51.1,29.99,NNW,345,0.0,0.0,95,0.00,,,0.00,33.00,VWS V14.00,2013-07-27 10:45:00,
2013-07-27 06:48:00,52.8,51.4,29.99,NNW,345,0.0,1.0,95,0.00,,,0.00,33.00,VWS V14.00,2013-07-27 10:48:00,
2013-07-27 06:50:00,53.1,51.7,29.99,NNW,345,0.0,1.0,95,0.00,,,0.00,33.00,VWS V14.00,2013-07-27 10:50:00,
2013-07-27 06:53:00,53.2,51.8,29.99,NNW,345,0.0,1.0,95,0.00,,,0.00,33.00,VWS V14.00,2013-07-27 10:53:00,
2013-07-27 06:55:00,53.4,51.7,29.99,NNW,345,0.0,1.0,94,0.00,,,0.00,32.00,VWS V14.00,2013-07-27 10:55:00,
2013-07-27 06:58:00,53.5,51.8,29.99,NNW,345,0.0,0.0,94,0.00,,,0.00,32.00,VWS V14.00,2013-07-27 10:58:00,
2013-07-27 07:00:00,53.7,52.3,29.99,NNW,345,0.0,0.0,95,0.00,,,0.00,32.00,VWS V14.00,2013-07-27 11:00:00,
2013-07-27 07:03:00,53.8,52.4,29.99,NNW,345,0.0,0.0,95,0.00,,,0.00,33.00,VWS V14.00,2013-07-27 11:03:00,
2013-07-27 07:05:00,54.0,52.6,29.99,NNW,345,0.0,0.0,95,0.00,,,0.00,30.00,VWS V14.00,2013-07-27 11:05:00,
2013-07-27 07:08:00,54.2,52.8,30.00,NNW,345,0.0,0.0,95,0.00,,,0.00,30.00,VWS V14.00,2013-07-27 11:08:00,
2013-07-27 07:10:00,54.4,53.0,29.99,NNW,345,0.0,0.0,95,0.00,,,0.00,30.00,VWS V14.00,2013-07-27 11:10:00,
2013-07-27 07:13:00,54.7,53.3,30.00,NNW,345,0.0,0.0,95,0.00,,,0.00,30.00,VWS V14.00,2013-07-27 11:13:00,
2013-07-27 07:15:00,54.9,53.5,29.99,NNW,345,0.0,0.0,95,0.00,,,0.00,30.00,VWS V14.00,2013-07-27 11:15:00,
2013-07-27 07:18:00,55.1,53.7,30.00,NNW,345,0.0,0.0,95,0.00,,,0.00,30.00,VWS V14.00,2013-07-27 11:18:00,
2013-07-27 07:20:00,55.3,53.9,30.00,NNW,345,0.0,0.0,95,0.00,,,0.00,30.00,VWS V14.00,2013-07-27 11:20:00,
2013-07-27 07:23:00,55.5,54.1,30.00,NNW,345,0.0,0.0,95,0.00,,,0.00,32.00,VWS V14.00,2013-07-27 11:23:00,
2013-07-27 07:25:00,55.7,54.3,29.99,NNW,345,0.0,0.0,95,0.00,,,0.00,32.00,VWS V14.00,2013-07-27 11:25:00,
2013-07-27 07:28:00,55.9,54.5,30.00,NNW,345,0.0,0.0,95,0.00,,,0.00,32.00,VWS V14.00,2013-07-27 11:28:00,
2013-07-27 07:30:00,56.2,54.8,30.00,NNW,345,0.0,0.0,95,0.00,,,0.00,33.00,VWS V14.00,2013-07-27 11:30:00,
2013-07-27 07:33:00,56.3,54.9,30.00,NNW,345,0.0,0.0,95,0.00,,,0.00,33.00,VWS V14.00,2013-07-27 11:33:00,
2013-07-27 07:35:00,56.5,55.1,30.00,NNW,345,0.0,0.0,95,0.00,,,0.00,33.00,VWS V14.00,2013-07-27 11:35:00,
2013-07-27 07:38:00,56.7,55.3,30.00,NNW,345,0.0,0.0,95,0.00,,,0.00,35.00,VWS V14.00,2013-07-27 11:38:00,
2013-07-27 07:40:00,56.9,55.5,30.00,NNW,345,0.0,0.0,95,0.00,,,0.00,35.00,VWS V14.00,2013-07-27 11:40:00,
2013-07-27 07:43:00,57.1,55.7,30.00,NNW,345,0.0,0.0,95,0.00,,,0.00,35.00,VWS V14.00,2013-07-27 11:43:00,
2013-07-27 07:45:00,57.2,55.8,30.00,NNW,345,0.0,0.0,95,0.00,,,0.00,35.00,VWS V14.00,2013-07-27 11:45:00,
2013-07-27 07:48:00,57.5,56.1,30.00,NNW,345,0.0,0.0,95,0.00,,,0.00,35.00,VWS V14.00,2013-07-27 11:48:00,
2013-07-27 07:50:00,57.7,56.3,29.99,NNW,345,0.0,0.0,95,0.00,,,0.00,37.00,VWS V14.00,2013-07-27 11:50:00,
2013-07-27 07:53:00,57.9,56.5,29.99,NNW,345,0.0,0.0,95,0.00,,,0.00,37.00,VWS V14.00,2013-07-27 11:53:00,
2013-07-27 07:55:00,58.2,56.8,30.00,NNW,345,0.0,0.0,95,0.00,,,0.00,37.00,VWS V14.00,2013-07-27 11:55:00,
2013-07-27 07:58:00,58.4,57.0,30.00,NNW,345,0.0,0.0,95,0.00,,,0.00,37.00,VWS V14.00,2013-07-27 11:58:00,
2013-07-27 08:00:00,58.6,57.5,30.00,NNW,345,0.0,0.0,96,0.00,,,0.00,37.00,VWS V14.00,2013-07-27 12:00:00,
2013-07-27 08:03:00,58.9,57.5,30.00,NNW,345,0.0,0.0,95,0.00,,,0.00,37.00,VWS V14.00,2013-07-27 12:03:00,
2013-07-27 08:05:00,59.0,57.9,30.00,NNW,345,0.0,0.0,96,0.00,,,0.00,39.00,VWS V14.00,2013-07-27 12:05:00,
2013-07-27 08:08:00,59.3,58.2,30.01,NNW,345,0.0,0.0,96,0.00,,,0.00,39.00,VWS V14.00,2013-07-27 12:08:00,
2013-07-27 08:10:00,59.5,58.1,30.00,NNW,344,0.0,0.0,95,0.00,,,0.00,39.00,VWS V14.00,2013-07-27 12:10:00,
2013-07-27 08:13:00,59.7,58.3,30.00,ENE,75,0.0,0.0,95,0.00,,,0.00,40.00,VWS V14.00,2013-07-27 12:13:00,
2013-07-27 08:15:00,59.8,58.4,30.00,SSE,151,0.0,0.0,95,0.00,,,0.00,49.00,VWS V14.00,2013-07-27 12:15:00,
2013-07-27 08:18:00,60.0,58.6,30.01,SSE,157,0.0,0.0,95,0.00,,,0.00,40.00,VWS V14.00,2013-07-27 12:18:00,
2013-07-27 08:20:00,60.2,58.8,30.01,SSE,157,0.0,0.0,95,0.00,,,0.00,47.00,VWS V14.00,2013-07-27 12:20:00,
2013-07-27 08:23:00,60.4,59.0,30.00,SSE,157,0.0,0.0,95,0.00,,,0.00,193.00,VWS V14.00,2013-07-27 12:23:00,
2013-07-27 08:25:00,60.5,59.1,30.01,SSE,157,0.0,0.0,95,0.00,,,0.00,165.00,VWS V14.00,2013-07-27 12:25:00,
2013-07-27 08:28:00,60.5,59.1,30.01,SSE,158,0.0,0.0,95,0.00,,,0.00,267.00,VWS V14.00,2013-07-27 12:28:00,
2013-07-27 08:30:00,60.7,59.3,30.01,SSE,158,0.0,0.0,95,0.00,,,0.00,378.00,VWS V14.00,2013-07-27 12:30:00,
2013-07-27 08:34:00,60.8,59.4,30.00,SSE,157,0.0,0.0,95,0.00,,,0.00,295.00,VWS V14.00,2013-07-27 12:34:00,
2013-07-27 08:35:00,60.9,59.5,30.01,SSE,157,0.0,0.0,95,0.00,,,0.00,411.00,VWS V14.00,2013-07-27 12:35:00,
2013-07-27 08:39:00,61.0,59.6,30.00,SE,128,0.0,2.0,95,0.00,,,0.00,422.00,VWS V14.00,2013-07-27 12:39:00,
2013-07-27 08:40:00,61.1,59.7,30.01,SE,128,0.0,2.0,95,0.00,,,0.00,427.00,VWS V14.00,2013-07-27 12:40:00,
2013-07-27 08:44:00,61.4,60.0,30.01,SE,128,0.0,0.0,95,0.00,,,0.00,436.00,VWS V14.00,2013-07-27 12:44:00,
2013-07-27 08:45:00,61.7,60.3,30.00,East,92,0.0,2.0,95,0.00,,,0.00,441.00,VWS V14.00,2013-07-27 12:45:00,
2013-07-27 08:49:00,61.9,60.5,30.00,East,85,0.0,1.0,95,0.00,,,0.00,454.00,VWS V14.00,2013-07-27 12:49:00,
2013-07-27 08:54:00,62.5,61.0,30.00,ESE,111,0.0,0.0,95,0.00,,,0.00,473.00,VWS V14.00,2013-07-27 12:54:00,
2013-07-27 08:55:00,62.7,61.2,30.00,ESE,116,0.0,0.0,95,0.00,,,0.00,478.00,VWS V14.00,2013-07-27 12:55:00,
2013-07-27 08:59:00,63.2,61.8,30.00,SSE,160,0.0,3.0,95,0.00,,,0.00,406.00,VWS V14.00,2013-07-27 12:59:00,
2013-07-27 09:00:00,63.4,62.0,30.00,SE,128,0.0,3.0,95,0.00,,,0.00,464.00,VWS V14.00,2013-07-27 13:00:00,
2013-07-27 09:04:00,63.7,62.0,30.00,SE,128,0.0,3.0,94,0.00,,,0.00,483.00,VWS V14.00,2013-07-27 13:04:00,
2013-07-27 09:05:00,63.9,62.1,30.00,SSE,153,0.0,3.0,94,0.00,,,0.00,512.00,VWS V14.00,2013-07-27 13:05:00,
2013-07-27 09:09:00,64.3,62.2,30.00,SE,130,0.0,2.0,93,0.00,,,0.00,527.00,VWS V14.00,2013-07-27 13:09:00,
2013-07-27 09:10:00,64.5,62.4,30.00,SE,131,0.0,2.0,93,0.00,,,0.00,541.00,VWS V14.00,2013-07-27 13:10:00,
2013-07-27 09:14:00,65.0,62.6,30.00,SSE,157,1.0,3.0,92,0.00,,,0.00,554.00,VWS V14.00,2013-07-27 13:14:00,
2013-07-27 09:15:00,65.3,62.9,30.00,SSE,159,0.0,3.0,92,0.00,,,0.00,540.00,VWS V14.00,2013-07-27 13:15:00,
2013-07-27 09:19:00,65.7,63.0,30.00,SSE,157,2.0,2.0,91,0.00,,,0.00,573.00,VWS V14.00,2013-07-27 13:19:00,
2013-07-27 09:24:00,66.4,63.4,30.00,SE,130,0.0,2.0,90,0.00,,,0.00,592.00,VWS V14.00,2013-07-27 13:24:00,
2013-07-27 09:29:00,67.0,63.3,30.00,SSE,167,0.0,4.0,88,0.00,,,0.00,564.00,VWS V14.00,2013-07-27 13:29:00,
2013-07-27 09:30:00,67.2,63.2,30.00,ESE,115,1.0,4.0,87,0.00,,,0.00,566.00,VWS V14.00,2013-07-27 13:30:00,
2013-07-27 09:34:00,67.6,63.6,30.00,ESE,123,0.0,3.0,87,0.00,,,0.00,628.00,VWS V14.00,2013-07-27 13:34:00,
2013-07-27 09:35:00,67.7,63.4,30.00,SE,128,2.0,3.0,86,0.00,,,0.00,638.00,VWS V14.00,2013-07-27 13:35:00,
2013-07-27 09:39:00,68.2,63.9,30.00,ESE,120,2.0,3.0,86,0.00,,,0.00,645.00,VWS V14.00,2013-07-27 13:39:00,
2013-07-27 09:40:00,68.4,64.1,30.00,ESE,113,7.0,7.0,86,0.00,,,0.00,645.00,VWS V14.00,2013-07-27 13:40:00,
2013-07-27 09:44:00,68.6,63.9,30.00,ESE,117,0.0,7.0,85,0.00,,,0.00,647.00,VWS V14.00,2013-07-27 13:44:00,
2013-07-27 09:45:00,68.8,64.1,30.00,SE,126,2.0,7.0,85,0.00,,,0.00,640.00,VWS V14.00,2013-07-27 13:45:00,
2013-07-27 09:49:00,69.1,64.4,30.00,SSE,155,4.0,4.0,85,0.00,,,0.00,661.00,VWS V14.00,2013-07-27 13:49:00,
2013-07-27 09:50:00,69.2,64.5,30.00,SSE,163,2.0,5.0,85,0.00,,,0.00,668.00,VWS V14.00,2013-07-27 13:50:00,
2013-07-27 09:54:00,69.4,64.4,30.00,South,172,0.0,4.0,84,0.00,,,0.00,677.00,VWS V14.00,2013-07-27 13:54:00,
2013-07-27 09:55:00,69.5,64.5,30.00,South,185,1.0,5.0,84,0.00,,,0.00,680.00,VWS V14.00,2013-07-27 13:55:00,
2013-07-27 09:59:00,69.7,64.3,30.00,South,170,2.0,4.0,83,0.00,,,0.00,691.00,VWS V14.00,2013-07-27 13:59:00,
2013-07-27 10:00:00,69.7,64.3,30.00,SSE,159,1.0,5.0,83,0.00,,,0.00,687.00,VWS V14.00,2013-07-27 14:00:00,
2013-07-27 10:04:00,69.9,64.5,30.00,South,174,0.0,5.0,83,0.00,,,0.00,707.00,VWS V14.00,2013-07-27 14:04:00,
2013-07-27 10:05:00,70.0,64.6,30.00,South,169,0.0,5.0,83,0.00,,,0.00,712.00,VWS V14.00,2013-07-27 14:05:00,
2013-07-27 10:09:00,70.1,64.7,29.99,SSE,162,0.0,4.0,83,0.00,,,0.00,722.00,VWS V14.00,2013-07-27 14:09:00,
2013-07-27 10:10:00,70.1,64.4,30.00,SSE,163,2.0,4.0,82,0.00,,,0.00,733.00,VWS V14.00,2013-07-27 14:10:00,
2013-07-27 10:14:00,70.1,64.0,30.00,ESE,115,0.0,3.0,81,0.00,,,0.00,682.00,VWS V14.00,2013-07-27 14:14:00,
2013-07-27 10:15:00,70.1,64.0,29.99,SSE,148,0.0,3.0,81,0.00,,,0.00,649.00,VWS V14.00,2013-07-27 14:15:00,
2013-07-27 10:19:00,70.1,63.7,30.00,South,177,5.0,7.0,80,0.00,,,0.00,733.00,VWS V14.00,2013-07-27 14:19:00,
2013-07-27 10:20:00,70.1,63.7,30.00,South,174,0.0,7.0,80,0.00,,,0.00,745.00,VWS V14.00,2013-07-27 14:20:00,
2013-07-27 10:24:00,70.2,63.8,30.00,ESE,111,0.0,4.0,80,0.00,,,0.00,744.00,VWS V14.00,2013-07-27 14:24:00,
2013-07-27 10:25:00,70.2,64.1,30.00,South,169,0.0,4.0,81,0.00,,,0.00,737.00,VWS V14.00,2013-07-27 14:25:00,
2013-07-27 10:29:00,70.4,64.3,30.00,ESE,105,1.0,4.0,81,0.00,,,0.00,759.00,VWS V14.00,2013-07-27 14:29:00,
2013-07-27 10:30:00,70.5,64.4,30.00,SE,133,0.0,5.0,81,0.00,,,0.00,763.00,VWS V14.00,2013-07-27 14:30:00,
2013-07-27 10:34:00,70.6,63.8,30.00,SSE,159,0.0,4.0,79,0.00,,,0.00,766.00,VWS V14.00,2013-07-27 14:34:00,
2013-07-27 10:35:00,70.7,63.9,30.00,SSE,153,4.0,4.0,79,0.00,,,0.00,765.00,VWS V14.00,2013-07-27 14:35:00,
2013-07-27 10:39:00,70.9,64.1,30.00,South,183,3.0,4.0,79,0.00,,,0.00,777.00,VWS V14.00,2013-07-27 14:39:00,
2013-07-27 10:40:00,71.1,64.6,30.00,SSW,195,0.0,4.0,80,0.00,,,0.00,782.00,VWS V14.00,2013-07-27 14:40:00,
2013-07-27 10:44:00,71.4,64.9,29.99,South,187,0.0,3.0,80,0.00,,,0.00,780.00,VWS V14.00,2013-07-27 14:44:00,
2013-07-27 10:45:00,71.5,65.0,29.99,SSE,161,1.0,4.0,80,0.00,,,0.00,793.00,VWS V14.00,2013-07-27 14:45:00,
2013-07-27 10:49:00,71.7,64.5,29.99,South,178,0.0,4.0,78,0.00,,,0.00,810.00,VWS V14.00,2013-07-27 14:49:00,
2013-07-27 10:50:00,71.8,64.9,29.99,South,173,0.0,4.0,79,0.00,,,0.00,817.00,VWS V14.00,2013-07-27 14:50:00,
2013-07-27 10:54:00,72.0,64.8,29.99,South,180,3.0,3.0,78,0.00,,,0.00,840.00,VWS V14.00,2013-07-27 14:54:00,
2013-07-27 10:55:00,72.1,65.2,29.99,South,184,4.0,6.0,79,0.00,,,0.00,847.00,VWS V14.00,2013-07-27 14:55:00,
2013-07-27 10:59:00,72.4,64.8,29.99,South,173,1.0,4.0,77,0.00,,,0.00,816.00,VWS V14.00,2013-07-27 14:59:00,
2013-07-27 11:00:00,72.4,65.2,29.99,South,174,2.0,4.0,78,0.00,,,0.00,756.00,VWS V14.00,2013-07-27 15:00:00,
2013-07-27 11:04:00,72.5,64.9,29.99,South,182,1.0,3.0,77,0.00,,,0.00,780.00,VWS V14.00,2013-07-27 15:04:00,
2013-07-27 11:05:00,72.5,64.9,29.99,South,176,2.0,3.0,77,0.00,,,0.00,777.00,VWS V14.00,2013-07-27 15:05:00,
2013-07-27 11:09:00,72.6,65.0,29.99,South,174,2.0,3.0,77,0.00,,,0.00,882.00,VWS V14.00,2013-07-27 15:09:00,
2013-07-27 11:10:00,72.7,65.4,29.99,South,173,0.0,3.0,78,0.00,,,0.00,851.00,VWS V14.00,2013-07-27 15:10:00,
2013-07-27 11:14:00,72.8,65.2,29.99,SE,140,1.0,7.0,77,0.00,,,0.00,891.00,VWS V14.00,2013-07-27 15:14:00,
2013-07-27 11:15:00,72.9,65.6,29.99,SSE,163,3.0,7.0,78,0.00,,,0.00,904.00,VWS V14.00,2013-07-27 15:15:00,
2013-07-27 11:19:00,73.1,65.1,29.99,SSE,163,1.0,4.0,76,0.00,,,0.00,835.00,VWS V14.00,2013-07-27 15:19:00,
2013-07-27 11:20:00,73.2,65.2,29.99,South,171,1.0,4.0,76,0.00,,,0.00,761.00,VWS V14.00,2013-07-27 15:20:00,
2013-07-27 11:24:00,73.3,65.3,29.99,SSE,160,3.0,5.0,76,0.00,,,0.00,749.00,VWS V14.00,2013-07-27 15:24:00,
2013-07-27 11:25:00,73.4,65.4,29.99,SSE,159,1.0,5.0,76,0.00,,,0.00,877.00,VWS V14.00,2013-07-27 15:25:00,
2013-07-27 11:29:00,73.4,65.0,29.99,ESE,115,0.0,7.0,75,0.00,,,0.00,881.00,VWS V14.00,2013-07-27 15:29:00,
2013-07-27 11:30:00,73.5,65.5,29.99,ESE,105,5.0,7.0,76,0.00,,,0.00,879.00,VWS V14.00,2013-07-27 15:30:00,
2013-07-27 11:34:00,73.7,65.7,29.99,SE,126,4.0,5.0,76,0.00,,,0.00,888.00,VWS V14.00,2013-07-27 15:34:00,
2013-07-27 11:35:00,73.8,65.4,29.99,ESE,105,8.0,8.0,75,0.00,,,0.00,888.00,VWS V14.00,2013-07-27 15:35:00,
2013-07-27 11:39:00,73.9,65.5,29.99,SE,142,4.0,8.0,75,0.00,,,0.00,904.00,VWS V14.00,2013-07-27 15:39:00,
2013-07-27 11:40:00,73.9,65.5,29.99,NE,51,0.0,8.0,75,0.00,,,0.00,912.00,VWS V14.00,2013-07-27 15:40:00,
2013-07-27 11:44:00,74.2,66.2,29.99,SSE,163,2.0,4.0,76,0.00,,,0.00,858.00,VWS V14.00,2013-07-27 15:44:00,
2013-07-27 11:45:00,74.2,66.2,29.99,SSE,154,1.0,7.0,76,0.00,,,0.00,875.00,VWS V14.00,2013-07-27 15:45:00,
2013-07-27 11:49:00,74.4,66.0,29.99,SE,135,0.0,3.0,75,0.00,,,0.00,891.00,VWS V14.00,2013-07-27 15:49:00,
2013-07-27 11:50:00,74.4,66.0,29.98,SW,221,0.0,5.0,75,0.00,,,0.00,860.00,VWS V14.00,2013-07-27 15:50:00,
2013-07-27 11:54:00,74.4,66.3,29.99,SE,144,0.0,5.0,76,0.00,,,0.00,926.00,VWS V14.00,2013-07-27 15:54:00,
2013-07-27 11:55:00,74.4,66.0,29.98,SSE,153,0.0,5.0,75,0.00,,,0.00,930.00,VWS V14.00,2013-07-27 15:55:00,
2013-07-27 11:59:00,74.6,66.9,29.98,SSW,194,0.0,5.0,77,0.00,,,0.00,860.00,VWS V14.00,2013-07-27 15:59:00,
2013-07-27 12:00:00,74.7,67.4,29.98,SE,146,2.0,5.0,78,0.00,,,0.00,861.00,VWS V14.00,2013-07-27 16:00:00,
2013-07-27 12:04:00,75.0,67.3,29.98,ESE,109,2.0,4.0,77,0.00,,,0.00,872.00,VWS V14.00,2013-07-27 16:04:00,
2013-07-27 12:05:00,75.1,66.6,29.99,SSE,157,0.0,4.0,75,0.00,,,0.00,872.00,VWS V14.00,2013-07-27 16:05:00,
2013-07-27 12:09:00,75.2,66.7,29.99,SSE,157,3.0,3.0,75,0.00,,,0.00,817.00,VWS V14.00,2013-07-27 16:09:00,
2013-07-27 12:10:00,75.3,66.4,29.99,SSE,160,2.0,3.0,74,0.00,,,0.00,782.00,VWS V14.00,2013-07-27 16:10:00,
2013-07-27 12:14:00,75.5,67.4,29.99,SSW,198,0.0,5.0,76,0.00,,,0.00,940.00,VWS V14.00,2013-07-27 16:14:00,
2013-07-27 12:15:00,75.6,67.1,29.99,SSW,192,0.0,5.0,75,0.00,,,0.00,939.00,VWS V14.00,2013-07-27 16:15:00,
2013-07-27 12:19:00,75.8,66.9,29.98,SSE,163,3.0,7.0,74,0.00,,,0.00,923.00,VWS V14.00,2013-07-27 16:19:00,
2013-07-27 12:20:00,75.9,67.4,29.98,SSE,165,0.0,7.0,75,0.00,,,0.00,926.00,VWS V14.00,2013-07-27 16:20:00,
2013-07-27 12:24:00,76.0,66.7,29.98,South,180,1.0,6.0,73,0.00,,,0.00,912.00,VWS V14.00,2013-07-27 16:24:00,
2013-07-27 12:25:00,76.1,67.2,29.98,South,174,2.0,6.0,74,0.00,,,0.00,925.00,VWS V14.00,2013-07-27 16:25:00,
2013-07-27 12:29:00,76.1,66.4,29.97,SSE,150,0.0,5.0,72,0.00,,,0.00,935.00,VWS V14.00,2013-07-27 16:29:00,
2013-07-27 12:30:00,76.1,66.0,29.97,South,169,0.0,5.0,71,0.00,,,0.00,881.00,VWS V14.00,2013-07-27 16:30:00,
2013-07-27 12:34:00,76.2,66.5,29.97,South,179,2.0,5.0,72,0.00,,,0.00,714.00,VWS V14.00,2013-07-27 16:34:00,
2013-07-27 12:35:00,76.1,66.4,29.97,South,173,3.0,5.0,72,0.00,,,0.00,585.00,VWS V14.00,2013-07-27 16:35:00,
2013-07-27 12:40:00,76.1,66.4,29.97,SE,138,2.0,5.0,72,0.00,,,0.00,933.00,VWS V14.00,2013-07-27 16:40:00,
2013-07-27 12:45:00,76.2,66.9,29.97,SE,141,1.0,5.0,73,0.00,,,0.00,926.00,VWS V14.00,2013-07-27 16:45:00,
2013-07-27 12:50:00,76.2,66.1,29.97,South,176,2.0,5.0,71,0.00,,,0.00,937.00,VWS V14.00,2013-07-27 16:50:00,
2013-07-27 12:55:00,76.4,66.3,29.97,SSE,167,2.0,4.0,71,0.00,,,0.00,937.00,VWS V14.00,2013-07-27 16:55:00,
2013-07-27 13:00:00,76.8,67.5,29.97,South,189,0.0,5.0,73,0.00,,,0.00,932.00,VWS V14.00,2013-07-27 17:00:00,
2013-07-27 13:05:00,77.1,66.2,29.97,SSE,163,0.0,8.0,69,0.00,,,0.00,974.00,VWS V14.00,2013-07-27 17:05:00,
2013-07-27 13:10:00,77.3,67.2,29.97,South,181,2.0,5.0,71,0.00,,,0.00,972.00,VWS V14.00,2013-07-27 17:10:00,
2013-07-27 13:15:00,77.6,66.2,29.97,SSE,159,3.0,5.0,68,0.00,,,0.00,1037.00,VWS V14.00,2013-07-27 17:15:00,
2013-07-27 13:20:00,77.8,66.8,29.97,SSE,159,4.0,4.0,69,0.00,,,0.00,1021.00,VWS V14.00,2013-07-27 17:20:00,
2013-07-27 13:25:00,77.8,66.8,29.96,SSE,165,3.0,5.0,69,0.00,,,0.00,979.00,VWS V14.00,2013-07-27 17:25:00,
2013-07-27 13:30:00,77.8,66.8,29.96,South,169,3.0,7.0,69,0.00,,,0.00,976.00,VWS V14.00,2013-07-27 17:30:00,
2013-07-27 13:35:00,78.0,67.0,29.96,South,183,1.0,6.0,69,0.00,,,0.00,1055.00,VWS V14.00,2013-07-27 17:35:00,
2013-07-27 13:40:00,78.6,68.8,29.96,SSE,150,1.0,5.0,72,0.00,,,0.00,1106.00,VWS V14.00,2013-07-27 17:40:00,
2013-07-27 13:45:00,78.7,67.3,29.96,SE,135,1.0,6.0,68,0.00,,,0.00,1085.00,VWS V14.00,2013-07-27 17:45:00,
2013-07-27 13:50:00,78.9,66.6,29.96,South,185,6.0,8.0,66,0.00,,,0.00,1056.00,VWS V14.00,2013-07-27 17:50:00,
2013-07-27 13:55:00,78.8,66.5,29.96,SSE,165,2.0,6.0,66,0.00,,,0.00,1020.00,VWS V14.00,2013-07-27 17:55:00,
2013-07-27 14:00:00,78.4,65.2,29.96,SSE,167,3.0,7.0,64,0.00,,,0.00,200.00,VWS V14.00,2013-07-27 18:00:00,
2013-07-27 14:05:00,77.9,65.2,29.95,ESE,105,4.0,4.0,65,0.00,,,0.00,325.00,VWS V14.00,2013-07-27 18:05:00,
2013-07-27 14:10:00,77.8,66.0,29.95,SE,138,3.0,7.0,67,0.00,,,0.00,1013.00,VWS V14.00,2013-07-27 18:10:00,
2013-07-27 14:15:00,77.9,65.6,29.95,South,180,2.0,8.0,66,0.00,,,0.00,925.00,VWS V14.00,2013-07-27 18:15:00,
2013-07-27 14:20:00,78.3,66.4,29.95,SSW,203,0.0,6.0,67,0.00,,,0.00,909.00,VWS V14.00,2013-07-27 18:20:00,
2013-07-27 14:25:00,78.5,65.8,29.95,South,190,3.0,8.0,65,0.00,,,0.00,745.00,VWS V14.00,2013-07-27 18:25:00,
2013-07-27 14:30:00,78.5,66.6,29.95,SSW,198,0.0,7.0,67,0.00,,,0.00,896.00,VWS V14.00,2013-07-27 18:30:00,
2013-07-27 14:35:00,78.5,65.8,29.95,SW,217,3.0,11.0,65,0.00,,,0.00,905.00,VWS V14.00,2013-07-27 18:35:00,
2013-07-27 14:40:00,78.4,65.7,29.95,WNW,282,3.0,9.0,65,0.00,,,0.00,817.00,VWS V14.00,2013-07-27 18:40:00,
2013-07-27 14:45:00,78.6,66.3,29.95,SSE,158,6.0,7.0,66,0.00,,,0.00,772.00,VWS V14.00,2013-07-27 18:45:00,
2013-07-27 14:50:00,78.9,67.0,29.95,South,176,0.0,7.0,67,0.00,,,0.00,826.00,VWS V14.00,2013-07-27 18:50:00,
2013-07-27 14:55:00,79.0,66.2,29.95,South,189,3.0,7.0,65,0.00,,,0.00,860.00,VWS V14.00,2013-07-27 18:55:00,
2013-07-27 15:00:00,79.3,67.4,29.95,SSE,151,4.0,8.0,67,0.00,,,0.00,935.00,VWS V14.00,2013-07-27 19:00:00,
2013-07-27 15:05:00,79.5,65.8,29.95,South,180,0.0,9.0,63,0.00,,,0.00,619.00,VWS V14.00,2013-07-27 19:05:00,
2013-07-27 15:10:00,79.3,65.2,29.95,SSE,163,7.0,7.0,62,0.00,,,0.00,408.00,VWS V14.00,2013-07-27 19:10:00,
2013-07-27 15:15:00,78.7,65.1,29.95,SSE,168,2.0,7.0,63,0.00,,,0.00,485.00,VWS V14.00,2013-07-27 19:15:00,
2013-07-27 15:20:00,78.2,64.6,29.95,SSE,162,2.0,6.0,63,0.00,,,0.00,352.00,VWS V14.00,2013-07-27 19:20:00,
2013-07-27 15:25:00,77.9,65.2,29.95,South,169,2.0,11.0,65,0.00,,,0.00,415.00,VWS V14.00,2013-07-27 19:25:00,
2013-07-27 15:30:00,77.8,65.1,29.94,SSE,159,5.0,12.0,65,0.00,,,0.00,563.00,VWS V14.00,2013-07-27 19:30:00,
2013-07-27 15:35:00,77.6,64.0,29.94,SSE,149,1.0,9.0,63,0.00,,,0.00,334.00,VWS V14.00,2013-07-27 19:35:00,
2013-07-27 15:40:00,77.4,64.3,29.95,SSW,207,4.0,7.0,64,0.00,,,0.00,313.00,VWS V14.00,2013-07-27 19:40:00,
2013-07-27 15:45:00,77.2,64.5,29.94,South,172,2.0,5.0,65,0.00,,,0.00,336.00,VWS V14.00,2013-07-27 19:45:00,
2013-07-27 15:50:00,77.0,63.9,29.94,South,173,2.0,7.0,64,0.00,,,0.00,471.00,VWS V14.00,2013-07-27 19:50:00,
2013-07-27 15:55:00,77.3,65.5,29.94,South,180,2.0,7.0,67,0.00,,,0.00,921.00,VWS V14.00,2013-07-27 19:55:00,
2013-07-27 16:00:00,77.9,65.6,29.94,South,180,2.0,8.0,66,0.00,,,0.00,633.00,VWS V14.00,2013-07-27 20:00:00,
2013-07-27 16:05:00,78.2,64.6,29.94,South,180,2.0,8.0,63,0.00,,,0.00,580.00,VWS V14.00,2013-07-27 20:05:00,
2013-07-27 16:10:00,78.5,65.3,29.94,South,180,2.0,6.0,64,0.00,,,0.00,535.00,VWS V14.00,2013-07-27 20:10:00,
2013-07-27 16:15:00,78.5,65.3,29.94,South,180,1.0,4.0,64,0.00,,,0.00,304.00,VWS V14.00,2013-07-27 20:15:00,
2013-07-27 16:20:00,78.6,65.9,29.94,South,180,2.0,8.0,65,0.00,,,0.00,435.00,VWS V14.00,2013-07-27 20:20:00,
2013-07-27 16:25:00,79.0,65.8,29.93,South,180,2.0,10.0,64,0.00,,,0.00,774.00,VWS V14.00,2013-07-27 20:25:00,
2013-07-27 16:30:00,79.3,65.2,29.93,South,180,2.0,5.0,62,0.00,,,0.00,394.00,VWS V14.00,2013-07-27 20:30:00,
2013-07-27 16:35:00,79.0,64.9,29.93,SSW,202,3.0,10.0,62,0.00,,,0.00,141.00,VWS V14.00,2013-07-27 20:35:00,
2013-07-27 16:40:00,78.5,64.4,29.93,SSW,202,2.0,8.0,62,0.00,,,0.00,344.00,VWS V14.00,2013-07-27 20:40:00,
2013-07-27 16:45:00,78.2,64.1,29.93,South,180,3.0,10.0,62,0.00,,,0.00,171.00,VWS V14.00,2013-07-27 20:45:00,
2013-07-27 16:50:00,78.0,64.4,29.93,South,180,1.0,4.0,63,0.00,,,0.00,195.00,VWS V14.00,2013-07-27 20:50:00,
2013-07-27 16:55:00,77.8,64.7,29.93,South,180,3.0,9.0,64,0.00,,,0.00,340.00,VWS V14.00,2013-07-27 20:55:00,
2013-07-27 17:00:00,77.8,65.1,29.92,South,180,1.0,7.0,65,0.00,,,0.00,283.00,VWS V14.00,2013-07-27 21:00:00,
2013-07-27 17:05:00,77.7,64.6,29.92,South,180,1.0,6.0,64,0.00,,,0.00,329.00,VWS V14.00,2013-07-27 21:05:00,
2013-07-27 17:10:00,77.8,65.1,29.92,South,180,2.0,6.0,65,0.00,,,0.00,428.00,VWS V14.00,2013-07-27 21:10:00,
2013-07-27 17:15:00,77.9,64.8,29.92,South,180,1.0,6.0,64,0.00,,,0.00,282.00,VWS V14.00,2013-07-27 21:15:00,
2013-07-27 17:20:00,77.9,65.2,29.92,South,180,2.0,9.0,65,0.00,,,0.00,302.00,VWS V14.00,2013-07-27 21:20:00,
2013-07-27 17:25:00,77.9,64.3,29.92,South,180,2.0,11.0,63,0.00,,,0.00,335.00,VWS V14.00,2013-07-27 21:25:00,
2013-07-27 17:30:00,77.9,64.8,29.92,SSW,202,1.0,4.0,64,0.00,,,0.00,390.00,VWS V14.00,2013-07-27 21:30:00,
2013-07-27 17:35:00,78.1,64.9,29.92,South,180,2.0,6.0,64,0.00,,,0.00,498.00,VWS V14.00,2013-07-27 21:35:00,
2013-07-27 17:40:00,78.4,65.2,29.92,South,180,2.0,8.0,64,0.00,,,0.00,481.00,VWS V14.00,2013-07-27 21:40:00,
2013-07-27 17:45:00,78.4,64.3,29.92,South,180,2.0,10.0,62,0.00,,,0.00,202.00,VWS V14.00,2013-07-27 21:45:00,
2013-07-27 17:50:00,78.4,64.3,29.91,South,180,2.0,5.0,62,0.00,,,0.00,350.00,VWS V14.00,2013-07-27 21:50:00,
2013-07-27 17:55:00,78.5,64.4,29.91,South,180,1.0,7.0,62,0.00,,,0.00,255.00,VWS V14.00,2013-07-27 21:55:00,
2013-07-27 18:00:00,78.3,63.8,29.91,SSW,202,3.0,7.0,61,0.00,,,0.00,243.00,VWS V14.00,2013-07-27 22:00:00,
2013-07-27 18:05:00,78.1,62.1,29.91,SSW,202,4.0,8.0,58,0.00,,,0.00,176.00,VWS V14.00,2013-07-27 22:05:00,
2013-07-27 18:15:00,77.4,62.4,29.91,SW,225,2.0,6.0,60,0.00,,,0.00,139.00,VWS V14.00,2013-07-27 22:15:00,
2013-07-27 18:20:00,77.1,62.6,29.91,SSW,202,1.0,5.0,61,0.00,,,0.00,145.00,VWS V14.00,2013-07-27 22:20:00,
2013-07-27 18:25:00,76.9,62.9,29.91,SW,225,0.0,3.0,62,0.00,,,0.00,140.00,VWS V14.00,2013-07-27 22:25:00,
2013-07-27 18:30:00,76.6,63.1,29.91,SW,225,0.0,1.0,63,0.00,,,0.00,135.00,VWS V14.00,2013-07-27 22:30:00,
2013-07-27 18:35:00,76.4,63.3,29.90,SW,225,0.0,2.0,64,0.00,,,0.00,136.00,VWS V14.00,2013-07-27 22:35:00,
2013-07-27 18:45:00,76.0,63.4,29.91,SW,225,0.0,1.0,65,0.00,,,0.00,261.00,VWS V14.00,2013-07-27 22:45:00,
2013-07-27 18:50:00,76.0,63.8,29.91,SW,225,0.0,1.0,66,0.00,,,0.00,197.00,VWS V14.00,2013-07-27 22:50:00,
2013-07-27 18:55:00,76.0,63.4,29.91,SW,225,0.0,2.0,65,0.00,,,0.00,274.00,VWS V14.00,2013-07-27 22:55:00,
2013-07-27 19:05:00,76.1,64.4,29.91,SW,225,0.0,2.0,67,0.00,,,0.00,253.00,VWS V14.00,2013-07-27 23:05:00,
2013-07-27 19:10:00,76.1,64.4,29.90,SW,225,0.0,2.0,67,0.00,,,0.00,230.00,VWS V14.00,2013-07-27 23:10:00,
2013-07-27 19:15:00,76.1,64.4,29.91,SW,225,1.0,4.0,67,0.00,,,0.00,216.00,VWS V14.00,2013-07-27 23:15:00,
2013-07-27 19:20:00,76.2,64.0,29.91,SW,225,0.0,3.0,66,0.00,,,0.00,180.00,VWS V14.00,2013-07-27 23:20:00,
2013-07-27 19:25:00,76.3,64.1,29.91,SW,225,0.0,1.0,66,0.00,,,0.00,128.00,VWS V14.00,2013-07-27 23:25:00,
2013-07-27 19:30:00,76.4,64.2,29.91,SW,225,0.0,0.0,66,0.00,,,0.00,77.00,VWS V14.00,2013-07-27 23:30:00,
2013-07-27 19:35:00,76.4,63.8,29.91,SW,225,0.0,0.0,65,0.00,,,0.00,61.00,VWS V14.00,2013-07-27 23:35:00,
2013-07-27 19:40:00,76.3,63.7,29.91,SW,225,0.0,1.0,65,0.00,,,0.00,41.00,VWS V14.00,2013-07-27 23:40:00,
2013-07-27 19:45:00,76.2,64.0,29.91,SW,225,0.0,1.0,66,0.00,,,0.00,28.00,VWS V14.00,2013-07-27 23:45:00,
2013-07-27 19:50:00,76.0,64.3,29.91,SW,225,0.0,2.0,67,0.00,,,0.00,26.00,VWS V14.00,2013-07-27 23:50:00,
2013-07-27 19:55:00,75.6,64.3,29.91,SW,225,0.0,0.0,68,0.00,,,0.00,26.00,VWS V14.00,2013-07-27 23:55:00,
2013-07-27 20:00:00,75.1,64.2,29.91,SW,225,0.0,0.0,69,0.00,,,0.00,24.00,VWS V14.00,2013-07-28 00:00:00,
2013-07-27 20:05:00,74.5,64.1,29.90,SW,225,0.0,1.0,70,0.00,,,0.00,19.00,VWS V14.00,2013-07-28 00:05:00,
2013-07-27 20:10:00,73.9,63.9,29.91,SW,225,0.0,0.0,71,0.00,,,0.00,13.00,VWS V14.00,2013-07-28 00:10:00,
2013-07-27 20:15:00,73.3,63.3,29.91,SW,225,0.0,2.0,71,0.00,,,0.00,11.00,VWS V14.00,2013-07-28 00:15:00,
2013-07-27 20:20:00,72.5,63.4,29.91,SW,225,0.0,2.0,73,0.00,,,0.00,8.00,VWS V14.00,2013-07-28 00:20:00,
2013-07-27 20:25:00,71.7,63.0,29.91,SW,225,0.0,1.0,74,0.00,,,0.00,6.00,VWS V14.00,2013-07-28 00:25:00,
2013-07-27 20:30:00,71.0,62.7,29.91,SW,225,0.0,1.0,75,0.00,,,0.00,0.00,VWS V14.00,2013-07-28 00:30:00,
2013-07-27 20:35:00,70.3,62.4,29.91,SW,225,0.0,1.0,76,0.00,,,0.00,0.00,VWS V14.00,2013-07-28 00:35:00,
2013-07-27 20:40:00,69.8,61.9,29.91,SW,225,0.0,1.0,76,0.00,,,0.00,0.00,VWS V14.00,2013-07-28 00:40:00,
2013-07-27 20:45:00,69.2,62.1,29.91,SW,225,0.0,1.0,78,0.00,,,0.00,0.00,VWS V14.00,2013-07-28 00:45:00,
2013-07-27 20:50:00,68.6,61.8,29.91,SW,225,0.0,1.0,79,0.00,,,0.00,0.00,VWS V14.00,2013-07-28 00:50:00,
2013-07-27 20:55:00,68.1,61.7,29.92,SW,225,0.0,1.0,80,0.00,,,0.00,0.00,VWS V14.00,2013-07-28 00:55:00,
2013-07-27 21:00:00,67.6,61.6,29.92,SW,225,3.0,4.0,81,0.00,,,0.00,0.00,VWS V14.00,2013-07-28 01:00:00,
2013-07-27 21:05:00,67.1,61.4,29.92,NW,315,2.0,4.0,82,0.00,,,0.00,0.00,VWS V14.00,2013-07-28 01:05:00,
2013-07-27 21:10:00,66.6,61.6,29.92,NW,315,1.0,2.0,84,0.00,,,0.00,0.00,VWS V14.00,2013-07-28 01:10:00,
2013-07-27 21:15:00,66.3,61.3,29.92,NW,315,1.0,2.0,84,0.00,,,0.00,0.00,VWS V14.00,2013-07-28 01:15:00,
2013-07-27 21:20:00,65.9,61.3,29.92,NW,315,1.0,2.0,85,0.00,,,0.00,0.00,VWS V14.00,2013-07-28 01:20:00,
2013-07-27 21:25:00,65.6,61.3,29.92,NW,315,1.0,2.0,86,0.00,,,0.00,0.00,VWS V14.00,2013-07-28 01:25:00,
2013-07-27 21:30:00,65.4,61.1,29.92,NW,315,0.0,1.0,86,0.00,,,0.00,0.00,VWS V14.00,2013-07-28 01:30:00,
2013-07-27 21:35:00,65.0,61.0,29.92,NW,315,0.0,2.0,87,0.00,,,0.00,0.00,VWS V14.00,2013-07-28 01:35:00,
2013-07-27 21:40:00,64.7,60.8,29.93,NW,315,0.0,2.0,87,0.00,,,0.00,0.00,VWS V14.00,2013-07-28 01:40:00,
2013-07-27 21:45:00,64.5,60.5,29.92,NW,315,0.0,2.0,87,0.00,,,0.00,0.00,VWS V14.00,2013-07-28 01:45:00,
2013-07-27 21:50:00,64.2,60.6,29.92,NW,315,0.0,2.0,88,0.00,,,0.00,0.00,VWS V14.00,2013-07-28 01:50:00,
2013-07-27 21:55:00,63.9,60.3,29.92,NW,315,0.0,2.0,88,0.00,,,0.00,0.00,VWS V14.00,2013-07-28 01:55:00,
2013-07-27 22:00:00,63.7,60.1,29.92,NW,315,2.0,3.0,88,0.00,,,0.00,0.00,VWS V14.00,2013-07-28 02:00:00,
2013-07-27 22:05:00,63.5,60.2,29.92,NW,315,1.0,3.0,89,0.00,,,0.00,0.00,VWS V14.00,2013-07-28 02:05:00,
2013-07-27 22:10:00,63.4,60.1,29.92,NW,315,1.0,2.0,89,0.00,,,0.00,0.00,VWS V14.00,2013-07-28 02:10:00,
2013-07-27 22:15:00,63.2,59.9,29.92,NW,315,1.0,2.0,89,0.00,,,0.00,0.00,VWS V14.00,2013-07-28 02:15:00,
2013-07-27 22:20:00,63.1,59.8,29.92,NW,315,1.0,3.0,89,0.00,,,0.00,0.00,VWS V14.00,2013-07-28 02:20:00,
2013-07-27 22:25:00,63.0,59.7,29.92,NW,315,2.0,3.0,89,0.00,,,0.00,0.00,VWS V14.00,2013-07-28 02:25:00,
2013-07-27 22:30:00,62.9,59.6,29.92,NW,315,3.0,4.0,89,0.00,,,0.00,0.00,VWS V14.00,2013-07-28 02:30:00,
2013-07-27 22:35:00,62.7,59.7,29.92,NW,315,3.0,4.0,90,0.00,,,0.00,0.00,VWS V14.00,2013-07-28 02:35:00,
2013-07-27 22:40:00,62.5,59.5,29.92,NW,315,2.0,4.0,90,0.00,,,0.00,0.00,VWS V14.00,2013-07-28 02:40:00,
2013-07-27 22:45:00,62.3,59.3,29.92,NW,315,2.0,3.0,90,0.00,,,0.00,0.00,VWS V14.00,2013-07-28 02:45:00,
2013-07-27 22:50:00,62.2,59.2,29.91,NW,315,1.0,4.0,90,0.00,,,0.00,0.00,VWS V14.00,2013-07-28 02:50:00,
2013-07-27 22:55:00,62.1,59.1,29.91,NW,315,3.0,4.0,90,0.00,,,0.00,0.00,VWS V14.00,2013-07-28 02:55:00,
2013-07-27 23:00:00,61.9,58.9,29.91,NW,315,3.0,4.0,90,0.00,,,0.00,0.00,VWS V14.00,2013-07-28 03:00:00,
2013-07-27 23:05:00,61.8,58.8,29.92,NW,315,3.0,4.0,90,0.00,,,0.00,0.00,VWS V14.00,2013-07-28 03:05:00,
2013-07-27 23:10:00,61.7,58.7,29.92,NW,315,2.0,3.0,90,0.00,,,0.00,0.00,VWS V14.00,2013-07-28 03:10:00,
2013-07-27 23:15:00,61.7,59.0,29.92,NW,315,3.0,4.0,91,0.00,,,0.00,0.00,VWS V14.00,2013-07-28 03:15:00,
2013-07-27 23:20:00,61.6,59.0,29.91,NW,315,3.0,4.0,91,0.00,,,0.00,0.00,VWS V14.00,2013-07-28 03:20:00,
2013-07-27 23:25:00,61.5,58.8,29.92,NW,315,2.0,4.0,91,0.00,,,0.00,0.00,VWS V14.00,2013-07-28 03:25:00,
2013-07-27 23:30:00,61.5,58.8,29.91,NW,315,1.0,3.0,91,0.00,,,0.00,0.00,VWS V14.00,2013-07-28 03:30:00,
2013-07-27 23:35:00,61.4,58.8,29.91,NW,315,1.0,3.0,91,0.00,,,0.00,0.00,VWS V14.00,2013-07-28 03:35:00,
2013-07-27 23:40:00,61.4,58.8,29.91,NW,315,0.0,2.0,91,0.00,,,0.00,0.00,VWS V14.00,2013-07-28 03:40:00,
2013-07-27 23:45:00,61.4,58.8,29.92,NW,315,0.0,2.0,91,0.00,,,0.00,0.00,VWS V14.00,2013-07-28 03:45:00,
2013-07-27 23:50:00,61.4,58.8,29.92,NW,315,0.0,1.0,91,0.00,,,0.00,0.00,VWS V14.00,2013-07-28 03:50:00,
2013-07-27 23:55:00,61.5,59.2,29.91,NW,315,0.0,1.0,92,0.00,,,0.00,0.00,VWS V14.00,2013-07-28 03:55:00,